AirNav   Air Wisconsin Airman Trainee
 
 1331 users online  

CL77 Bonny Doon Airport
Santa Cruz, California, USA

GOING TO SANTA CRUZ?


FAA INFORMATION EFFECTIVE 28 FEBRUARY 2019

Location

FAA Identifier: CL77
Lat/Long: 37-04-13.8130N / 122-07-38.8760W
37-04.230217N / 122-07.647933W
37.0705036 / -122.1274656
(estimated)
Elevation: 2020 ft. / 616 m (estimated)
Variation: 16E (1980)
From city: 8 miles NW of SANTA CRUZ, CA
Time zone: UTC -8 (UTC -7 during Daylight Saving Time)
Zip code: 95060

Airport Operations

Airport use: Private use. Permission required prior to landing
Activation date: 07/1986
Control tower: no
ARTCC: OAKLAND CENTER
FSS: OAKLAND FLIGHT SERVICE STATION
Attendance: CONTINUOUS
Wind indicator: yes
Segmented circle: yes

Airport Communications

WX ASOS at WVI (18 nm SE): 132.275 (831-724-8794)
WX ASOS at SJC (20 nm NE): 126.95 (408-969-0838)

Nearby radio navigation aids

VOR radial/distance  VOR name  Freq  Var
SJCr190/20.2SAN JOSE VOR/DME114.1016E
OSIr142/20.7WOODSIDE VOR/DME113.9017E
SFOr143/35.0SAN FRANCISCO VOR/DME115.8017E
SNSr297/35.1SALINAS VORTAC117.3017E
OAKr156/39.6OAKLAND VOR/DME116.8017E

Airport Services

Runway Information

Runway 12/30

Dimensions: 2200 x 50 ft. / 671 x 15 m
Surface: asphalt
RUNWAY 12  RUNWAY 30
Traffic pattern: leftleft

Airport Ownership and Management from official FAA records

Ownership: Privately-owned
Owner: BONNY DOON AIRPORT LLC
8647 EMPIRE GRADE
SANTA CRUZ, CA 95060
Phone 415-764-2721
C/O MARGARET LIP
Manager: PHILLIP TRISSELL
11530 EMPIRE GRADE
SANTA CRUZ, CA 95060
Phone 831-254-5111

Airport Operational Statistics

Aircraft based on the field: 2
Single engine airplanes: 2
    

Additional Remarks

TREES SURROUNDING ARPT; HIGH TRRN NORTH; USE RWY 30 FOR LANDING; RWY 12 FOR TKOF.
FOR CD CTC NORCAL APCH AT 916-361-3748.

Instrument Procedures

There are no published instrument procedures at CL77.

Some nearby airports with instrument procedures:

KWVI - Watsonville Municipal Airport (18 nm SE)
KSJC - Norman Y Mineta San Jose International Airport (20 nm NE)
KNUQ - Moffett Federal Airfield (21 nm N)
KRHV - Reid-Hillview Airport of Santa Clara County (22 nm NE)
KPAO - Palo Alto Airport (23 nm N)
 
Loc | Ops | Rwys | IFR | FBO | Links
Com | Nav | Svcs | Stats | Notes
Area around CL77 (Bonny Doon Airport)
 
Road maps at: MapQuest Bing Google
 
Aerial photo
WARNING: Photo may not be current or correct
Aerial photo of CL77 (Bonny Doon Airport)
Do you have a better or more recent aerial photo of Bonny Doon Airport that you would like to share? If so, please send us your photo.

 
Sectional chart

 
Airport distance calculator
Flying to Bonny Doon Airport? Find the distance to fly.

From to CL77

Sunrise and sunset
Times for 26-Mar-2019
 Local
(UTC-7)
 Zulu
(UTC)
Morning civil twilight06:3813:38
Sunrise07:0414:04
Sunset19:2402:24
Evening civil twilight19:5002:50

Current date and time
Zulu (UTC)  26-Mar-2019 13:40:05
Local (UTC-7)  26-Mar-2019 06:40:05
 
METAR
KWVI 
18nm SE 
261253Z AUTO 00000KT 10SM OVC038 11/11 A3005 RMK AO2 SLP176 T01110111
KSJC 
20nm NE 
261253Z 33004KT 10SM FEW004 SCT012 BKN020 11/10 A3005 RMK AO2 SLP177 T01110100 $
KRHV 
21nm NE 
260450Z 00000KT 7SM RA BKN060 14/13 A3005
KNUQ 
21nm N 
261256Z 00000KT 10SM CLR 09/ A3006 RMK AO2 SLP181 T0094 $
KPAO 
24nm N 
252347Z 24009KT 10SM BKN040 OVC110 17/09 A3005 RMK VIS W 2SM
KSQL 
27nm N 
261315Z AUTO 00000KT 10SM SCT070 09/09 A3006 RMK AO2
KOAR 
30nm SE 
134.025 831-384-2967
No observation available
KHAF 
32nm NW 
261315Z AUTO 00000KT 10SM CLR 07/06 A3006 RMK AO2
KMRY 
32nm SE 
261321Z 00000KT 10SM FEW014 OVC026 12/09 A3006 RMK AO2 T01220089
KSFO 
35nm N 
261256Z 22003KT 8SM FEW008 BKN070 10/08 A3005 RMK AO2 SLP174 T01000078
TAF
KSJC 
20nm NE 
261129Z 2612/2712 VRB03KT P6SM BKN015 BKN040 FM261700 VRB03KT P6SM SCT020 BKN040 FM262100 28008KT P6SM VCSH BKN030 BKN050 FM270400 14004KT P6SM VCSH SCT030 BKN050 FM270800 14012G18KT P6SM -RA BKN025 OVC040
NOTAMs
Click for the latest NOTAMs
NOTAMs are issued by the DoD/FAA and will open in a separate window not controlled by AirNav.

 

 
 

Would you like to see your business listed on this page?

 If your business provides an interesting product or service to pilots, flight crews, aircraft, or users of the Bonny Doon Airport, you should consider listing it here.  To start the listing process, click on the button below
 
Add a business
 

Other Pages about Bonny Doon Airport

Update a link
 
Copyright © AirNav, LLC. All rights reserved. Privacy Policy  Contact